Биарриц

France     43˚28′01″N   1˚31′58″E
temp.,
°C
wind,
m/s
gust,
m/s
humid.,
%
clouds,
%
prec.,
mm/h
press.,
hPa
HPBL,
m
3 december, thu
thu301:00+5˚w597898 0.1 1018591
04:00+4˚wsw498469 0.0 1016284
07:00+4˚wsw367578 0.0 1014188
10:00+6˚se016185 0.0 101192
13:00+7˚sw246692 0.1 1008204
16:00+8˚sse2276100 0.1 1004103
19:00+7˚sse4874100 0.1 1002171
22:00+7˚sse51160100 0.0 998277
4 december, fri
fri401:00+8˚se61061100 0.0 994282
04:00+5˚w357151 0.2 991305
07:00+6˚wsw498276 2.7 993791
10:00+6˚wsw5882100 0.1 992635
13:00+4˚w51188100 4.1 991769
16:00+8˚w51061100 0.5 9911420
19:00+5˚w41071100 0.8 993430
22:00+3˚wsw368580 0.0 995236
5 december, sat
sat501:00+4˚sw4108586 0.3 995570
04:00+2˚ssw368868 0.0 996233
07:00+2˚wsw6139363 1.9 996631
10:00+4˚s358493 1.1 996249
13:00+7˚se576575 1.1 995439
16:00+8˚w2264100 0.0 996252
19:00+4˚s5887100 1.3 997465
22:00+5˚sw51282100 0.2 998689
6 december, sun
sun601:00+5˚wsw61286100 0.2 998542
04:00+4˚w5119398 3.6 999718
07:00+5˚sw4118499 6.6 1000486
10:00+5˚wsw61186100 0.4 1001518
13:00+8˚w71067100 0.7 10011221
16:00+8˚w8136578 1.2 10011406
19:00+6˚w8137589 1.7 1003928
22:00+6˚wnw7128197 0.6 1005987
7 december, mon
mon701:00+6˚w7118398 1.1 10051019
04:00+5˚w61186100 0.4 1006631
07:00+5˚wnw71189100 0.8 1007907
10:00+4˚nw61181100 0.5 1010960
13:00+6˚wnw686790 0.6 1010974
16:00+7˚wnw576843 0.1 10111122
19:00+5˚wnw247836 0.1 1013180
22:00+5˚wsw258993 0.3 1013312